Вернуться в каталог

STARLINK-3318

АктивенСвязьVLEO
NORAD 50837·PAYLOAD·🇺🇸 United States

Запущен Jan 6, 2022 с Cape Canaveral Space Force Station

Loading…

Ближайшие Пролёты (ближайшие 24 часа)

TLE

СвежийSource: CelesTrak SupGP

Эпоха: Sep 15, 2026, 02:20 UTC

1 50837C 22001AL  26258.09770833 -.00016877  00000+0 -49870-3 0  2587
2 50837  53.1602  26.8527 0001091  79.6623 268.6299 15.34394654    13

Отслеживайте STARLINK-3318 в реальном времени с AllMySat

Download on the App Store